Location: La Pernelle
(49.6188°N, 1.2999°W)
Time: 03:14:39
(UTC+00:00)

NOSS 3-2 (A) - Pass Details

Date: 19 October 2021
Orbit: 771 x 1437 km, 63.4° (Epoch: 21 November)

Event Time Altitude Azimuth Distance (km) Brightness Sun altitude
Rises 21:50:37 0° 316° (NW) 3,871 7.4 -43.6°
Reaches altitude 10° 21:53:07 10° 318° (NW) 3,002 6.6 -43.8°
Enters shadow 21:56:43 34° 325° (NW) 1,873 5.2 -44.2°
